Alicante, Spain

5:02 AM CET on November 22, 2017 (GMT +0100)
Alicante

Weather History for LEAL - January, 2013

Change the Weather History Date:

Thursday, January 31, 2013

  Actual Average Record
Temperature  
Mean Temperature 62 °F -  
Max Temperature 75 °F 61 °F 75 °F (2013)
Min Temperature 48 °F 43 °F 28 °F (2005)
Degree Days  
Heating Degree Days 2    
Growing Degree Days 12 (Base 50)    
Moisture  
Dew Point 45 °F    
Average Humidity 53    
Maximum Humidity 87    
Minimum Humidity 18    
Precipitation  
Precipitation 0.00 in - - ()
Sea Level Pressure  
Sea Level Pressure 30.38 in    
Wind  
Wind Speed 8 mph ()    
Max Wind Speed 16 mph    
Max Gust Speed 26 mph    
Visibility 14.0 miles    
Events      
Averages and records for this station are not official NWS values.
T = Trace of Precipitation, MM = Missing Value Source: Averaged Metar Reports

Daily Weather History Graph

Daily Weather History Graph

Search for Another Location

Airport or City:

Trip Planner

Search our weather history database for the weather conditions in past years. The results will help you decide how hot, cold, wet, or windy it might be!

Date:

Astronomy

Jan. 31, 2013 Rise Set
Actual Time 8:08 AM CET 6:23 PM CET
Civil Twilight 7:40 AM CET 6:51 PM CET
Nautical Twilight 7:08 AM CET 7:23 PM CET
Astronomical Twilight 6:37 AM CET 7:54 PM CET
Moon 11:05 PM CET (1/31) 10:04 AM CET (1/31)
Length of Visible Light 11h 11m
Length of Day
10h 15m
Waning Gibbous, 82% of the Moon is Illuminated
Jan 31
Waning Gibbous
Feb 3
Last Quarter
Feb 10
New
Feb 17
First Quarter
Feb 25
Full

Hourly Weather History & Observations

Time (CET) Temp. Dew Point Humidity Pressure Visibility Wind Dir Wind Speed Gust Speed Precip Events Conditions
12:00 AM 64.4 °F 41.0 °F 42% 30.36 in - WNW 13.8 mph - N/A   Clear
12:30 AM 64.4 °F 41.0 °F 42% 30.36 in - WNW 11.5 mph - N/A   Clear
1:00 AM 61 °F 38 °F 31% 30.38 in 12 mi West 10.4 mph - -  
1:00 AM 62.6 °F 41.0 °F 45% 30.36 in - West 10.4 mph - N/A   Clear
1:30 AM 60.8 °F 41.0 °F 48% 30.36 in - West 8.1 mph - N/A   Clear
2:00 AM 62.6 °F 42.8 °F 48% 30.36 in - WNW 9.2 mph - N/A   Clear
2:30 AM 62.6 °F 42.8 °F 48% 30.36 in - WNW 12.7 mph - N/A   Clear
3:00 AM 62.6 °F 42.8 °F 48% 30.36 in - WNW 13.8 mph - N/A   Clear
3:30 AM 62.6 °F 42.8 °F 48% 30.36 in - WNW 13.8 mph - N/A   Clear
4:00 AM 62.6 °F 42.8 °F 48% 30.36 in - WNW 16.1 mph - N/A   Clear
4:30 AM 60.8 °F 42.8 °F 52% 30.36 in - WNW 15.0 mph - N/A   Clear
5:00 AM 60.8 °F 42.8 °F 52% 30.36 in - WNW 16.1 mph - N/A   Clear
5:30 AM 60.8 °F 42.8 °F 52% 30.36 in - WNW 15.0 mph - N/A   Clear
6:00 AM 60.8 °F 42.8 °F 52% 30.36 in - WNW 15.0 mph 26.5 mph N/A   Clear
6:30 AM 60.8 °F 44.6 °F 55% 30.36 in - WNW 15.0 mph - N/A   Clear
7:00 AM 59 °F 40 °F 39% 30.40 in 12 mi WNW 11.5 mph - -  
7:00 AM 59.0 °F 42.8 °F 55% 30.39 in - NW 11.5 mph - N/A   Clear
7:30 AM 57.2 °F 42.8 °F 59% 30.39 in - WNW 5.8 mph - N/A   Clear
8:00 AM 57.2 °F 42.8 °F 59% 30.42 in - WNW 4.6 mph - N/A   Clear
8:30 AM 55.4 °F 44.6 °F 67% 30.42 in - WNW 9.2 mph - N/A   Clear
9:00 AM 59.0 °F 44.6 °F 59% 30.42 in - WNW 10.4 mph - N/A   Clear
9:30 AM 60.8 °F 46.4 °F 59% 30.42 in - WNW 5.8 mph - N/A   Clear
10:00 AM 64.4 °F 46.4 °F 52% 30.42 in - West 3.5 mph - N/A   Clear
10:30 AM 68.0 °F 44.6 °F 43% 30.42 in - WNW 3.5 mph - N/A   Clear
11:00 AM 69.8 °F 42.8 °F 38% 30.42 in - WNW 3.5 mph - N/A   Clear
11:30 AM 73.4 °F 39.2 °F 29% 30.45 in - Calm Calm - N/A   Clear
12:00 PM 73.4 °F 41.0 °F 31% 30.45 in - Variable 1.2 mph - N/A   Clear
12:30 PM 75.2 °F 41.0 °F 29% 30.42 in - Calm Calm - N/A   Clear
1:00 PM 74 °F 39 °F 18% 30.42 in 16 mi West 1.2 mph - -   Clear
1:30 PM 71.6 °F 48.2 °F 43% 30.39 in - ENE 6.9 mph - N/A   Clear
2:00 PM 71.6 °F 46.4 °F 41% 30.39 in - ENE 8.1 mph - N/A   Clear
2:30 PM 73.4 °F 46.4 °F 38% 30.36 in - ENE 6.9 mph - N/A   Clear
3:00 PM 75.2 °F 44.6 °F 34% 30.36 in - SSE 4.6 mph - N/A   Clear
3:30 PM 75.2 °F 42.8 °F 31% 30.36 in - SSE 4.6 mph - N/A   Clear
4:00 PM 68.0 °F 51.8 °F 56% 30.36 in - NE 6.9 mph - N/A   Clear
4:30 PM 68.0 °F 51.8 °F 56% 30.36 in - Variable 2.3 mph - N/A   Clear
5:00 PM 66.2 °F 50.0 °F 56% 30.36 in - Variable 1.2 mph - N/A   Clear
5:30 PM 66.2 °F 48.2 °F 52% 30.36 in - Variable 1.2 mph - N/A   Clear
6:00 PM 64.4 °F 48.2 °F 56% 30.36 in - Calm Calm - N/A   Clear
6:30 PM 60.8 °F 46.4 °F 59% 30.36 in - Variable 1.2 mph - N/A   Clear
7:00 PM 60 °F 46 °F 49% 30.39 in 16 mi NNE 2.3 mph - -   Clear
7:00 PM 60.8 °F 48.2 °F 63% 30.36 in - Variable 1.2 mph - N/A   Clear
7:30 PM 59.0 °F 50.0 °F 72% 30.39 in - Variable 1.2 mph - N/A   Clear
8:00 PM 57.2 °F 48.2 °F 72% 30.36 in - Calm Calm - N/A   Clear
8:30 PM 53.6 °F 46.4 °F 77% 30.39 in - Calm Calm - N/A   Clear
9:00 PM 53.6 °F 46.4 °F 77% 30.39 in - Calm Calm - N/A   Clear
9:30 PM 53.6 °F 46.4 °F 77% 30.39 in - Variable 1.2 mph - N/A   Clear
10:00 PM 53.6 °F 48.2 °F 82% 30.39 in - Variable 1.2 mph - N/A   Clear
10:30 PM 53.6 °F 46.4 °F 77% 30.36 in - Calm Calm - N/A   Clear
11:00 PM 50.0 °F 46.4 °F 87% 30.36 in - Calm Calm - N/A   Clear
11:30 PM 48.2 °F 44.6 °F 87% 30.36 in - Variable 1.2 mph - N/A   Clear